TA2NC-13 Weather Reports


time (UTC)temp
F
wind
direction
speed
knots
gust
knots
rain 1hr
in
rain 24hr
in
rain mn
in
humidity
%
barometer
mb
20260906112000 81 118 3.5 5.2 0.00 0.00 0.00 29 1018.5
20260906111000 81 0 0.0 0.0 0.00 0.00 0.00 29 1018.5
20260906110000 81 0 0.0 0.0 0.00 0.00 0.00 28 1018.5
20260906105000 81 59 2.6 4.3 0.00 0.00 0.00 29 1018.5
20260906104000 81 261 3.5 7.8 0.00 0.00 0.00 31 1018.5
20260906103000 79 268 4.3 7.0 0.00 0.00 0.00 29 1018.5
20260906102000 79 235 3.5 7.8 0.00 0.00 0.00 30 1018.5
20260906101000 79 322 0.9 7.0 0.00 0.00 0.00 30 1019.0
20260906100001 79 273 4.3 8.7 0.00 0.00 0.00 32 1019.0
20260906095000 79 270 4.3 9.6 0.00 0.00 0.00 33 1019.0
20260906094000 79 183 1.7 5.2 0.00 0.00 0.00 33 1019.0
20260906093000 78 246 4.3 7.8 0.00 0.00 0.00 34 1019.0
20260906092000 78 254 3.5 7.8 0.00 0.00 0.00 35 1019.0
20260906091000 78 271 3.5 7.8 0.00 0.00 0.00 36 1019.0
20260906090001 78 264 5.2 7.8 0.00 0.00 0.00 37 1019.0
20260906085001 78 306 0.9 5.2 0.00 0.00 0.00 38 1019.0
20260906084001 78 277 7.0 7.8 0.00 0.00 0.00 39 1019.0
20260906083001 77 262 1.7 5.2 0.00 0.00 0.00 37 1019.0
20260906082000 77 192 0.9 7.0 0.00 0.00 0.00 38 1019.0
20260906081000 77 277 0.0 5.2 0.00 0.00 0.00 38 1019.0
20260906080001 77 61 0.9 2.6 0.00 0.00 0.00 39 1019.0
20260906075001 77 223 2.6 3.5 0.00 0.00 0.00 37 1019.0
20260906074001 77 264 4.3 6.1 0.00 0.00 0.00 40 1019.0
20260906073000 75 341 3.5 5.2 0.00 0.00 0.00 41 1019.0
20260906072001 75 271 5.2 7.0 0.00 0.00 0.00 40 1019.0
20260906071001 75 179 1.7 4.3 0.00 0.00 0.00 40 1019.5
20260906070000 75 178 2.6 4.3 0.00 0.00 0.00 42 1019.5
20260906065000 75 333 1.7 6.1 0.00 0.00 0.00 42 1019.5
20260906064000 75 326 2.6 5.2 0.00 0.00 0.00 45 1019.5
20260906063001 73 342 0.9 3.5 0.00 0.00 0.00 44 1019.5
20260906062001 72 54 1.7 3.5 0.00 0.00 0.00 49 1019.5
20260906061000 70 222 0.9 3.5 0.00 0.00 0.00 52 1019.0
20260906060001 66 247 0.0 0.0 0.00 0.00 0.00 55 1019.0
20260906055001 61 244 0.0 0.0 0.00 0.00 0.00 60 1019.0
20260906054000 59 235 0.0 0.0 0.00 0.00 0.00 61 1019.0
20260906053000 59 217 0.0 0.0 0.00 0.00 0.00 61 1019.0
20260906052000 57 235 0.0 0.0 0.00 0.00 0.00 62 1019.0
20260906051001 55 247 0.0 0.0 0.00 0.00 0.00 63 1019.0
20260906050000 55 247 0.0 0.0 0.00 0.00 0.00 63 1019.0
20260906045000 55 229 0.0 0.0 0.00 0.00 0.00 64 1019.0
20260906044000 54 247 0.0 0.0 0.00 0.00 0.00 64 1019.0
20260906043001 54 195 0.0 0.0 0.00 0.00 0.00 63 1019.0
20260906042000 54 201 0.0 0.0 0.00 0.00 0.00 62 1019.0
20260906041001 54 177 0.0 0.0 0.00 0.00 0.00 61 1019.0
20260906040001 54 24 0.0 0.0 0.00 0.00 0.00 62 1019.0
20260906035000 54 215 0.0 0.0 0.00 0.00 0.00 60 1019.0
20260906034001 55 213 0.0 0.0 0.00 0.00 0.00 59 1019.0
20260906033001 55 227 0.0 0.0 0.00 0.00 0.00 60 1019.0
20260906032000 55 170 0.0 0.0 0.00 0.00 0.00 59 1019.0
20260906031000 55 112 0.0 0.0 0.00 0.00 0.01 58 1019.0
20260906030001 55 303 0.0 0.0 0.00 0.00 0.01 58 1019.0
20260906025000 55 334 0.0 0.0 0.00 0.00 0.01 58 1019.0
20260906024000 56 306 0.0 0.0 0.00 0.00 0.01 59 1019.0
20260906023000 56 246 0.0 0.0 0.00 0.00 0.01 58 1019.0
20260906022001 56 171 0.0 0.0 0.00 0.00 0.01 58 1019.0
20260906021000 56 200 0.0 0.0 0.00 0.00 0.01 58 1019.0
20260906020001 56 20 0.0 0.0 0.00 0.00 0.01 56 1019.0
20260906015000 56 229 0.0 0.0 0.00 0.00 0.01 57 1019.0
20260906014000 57 17 0.0 0.0 0.00 0.00 0.01 57 1019.0
20260906013000 57 15 0.0 0.0 0.00 0.00 0.01 58 1019.0
20260906012000 57 195 0.0 0.0 0.00 0.00 0.01 58 1019.0
20260906011000 57 231 0.0 0.0 0.00 0.00 0.01 55 1019.0
20260906010001 57 131 0.0 0.0 0.00 0.00 0.01 57 1019.0
20260906005000 57 28 0.0 0.0 0.01 0.00 0.01 59 1019.0
20260906004001 59 11 0.0 0.0 0.01 0.00 0.01 56 1019.0
20260906003001 59 247 0.0 0.0 0.01 0.00 0.01 54 1019.0
20260906002000 59 304 0.0 0.0 0.01 0.00 0.01 54 1019.0
20260906001001 59 346 0.0 0.0 0.00 0.00 0.00 55 1019.0
20260906000001 59 23 0.0 0.0 0.00 0.00 0.00 64 1019.0
20260905235000 59 63 0.0 0.0 0.00 0.00 0.00 52 1019.0
20260905234000 60 329 0.0 0.0 0.00 0.00 0.00 50 1019.0
20260905233001 60 220 0.0 0.0 0.00 0.00 0.00 49 1019.0
20260905232001 60 9 0.0 0.0 0.00 0.00 0.00 48 1019.0
20260905231001 60 149 0.0 0.0 0.00 0.00 0.00 50 1019.0
20260905230001 60 236 0.0 0.0 0.00 0.00 0.00 49 1019.0
20260905225000 60 253 0.0 0.0 0.00 0.00 0.00 49 1019.0
20260905224000 61 33 0.0 0.0 0.00 0.00 0.00 49 1019.0
20260905223000 61 91 0.0 0.0 0.00 0.00 0.00 48 1019.0
20260905222000 61 309 0.0 0.0 0.00 0.00 0.00 48 1019.0
20260905221000 61 320 0.0 0.0 0.00 0.00 0.00 47 1019.0
20260905220001 61 191 0.0 0.0 0.00 0.00 0.00 47 1019.0
20260905215000 61 171 0.0 0.0 0.00 0.00 0.00 47 1019.0
20260905214000 62 192 0.0 0.0 0.00 0.00 0.00 47 1019.0
20260905213001 62 27 0.0 0.0 0.00 0.00 0.00 46 1019.0
20260905212001 62 336 0.0 0.0 0.00 0.00 0.00 47 1019.0
20260905211000 62 327 0.0 0.0 0.00 0.00 0.00 46 1019.0
20260905210001 62 339 0.0 0.0 0.00 0.00 0.00 46 1019.0
20260905205000 62 83 0.0 0.0 0.00 0.00 0.00 45 1019.0
20260905204001 64 295 0.0 0.0 0.00 0.00 0.00 46 1019.0
20260905203001 64 247 0.0 0.0 0.00 0.00 0.00 45 1019.0
20260905202000 64 113 0.0 0.0 0.00 0.00 0.00 44 1019.0
20260905201000 64 192 0.0 0.0 0.00 0.00 0.00 44 1019.0
20260905200000 64 235 0.0 0.0 0.00 0.00 0.00 43 1019.0
20260905195000 66 213 0.0 0.0 0.00 0.00 0.00 43 1019.0
20260905194000 66 297 0.0 0.0 0.00 0.00 0.00 43 1019.0
20260905193000 66 244 0.0 0.0 0.00 0.00 0.00 42 1019.0
20260905192618 66 283 0.0 0.0 0.00 0.00 0.00 42 1019.0
20260905192000 66 84 0.0 0.0 0.00 0.00 0.00 42 1019.0
20260905191000 66 132 0.0 0.0 0.00 0.00 0.00 42 1018.5
20260905190000 66 42 0.0 0.0 0.00 0.00 0.00 42 1018.5
20260905185000 67 217 0.0 0.0 0.00 0.00 0.00 41 1018.5
20260905184000 67 235 0.0 1.7 0.00 0.00 0.00 41 1018.5
20260905183000 67 2 0.9 1.7 0.00 0.00 0.00 40 1018.5
20260905182001 67 172 0.0 0.0 0.00 0.00 0.00 40 1018.0
20260905181000 67 231 0.0 1.7 0.00 0.00 0.00 39 1018.0
20260905180001 67 256 1.7 2.6 0.00 0.00 0.00 40 1018.0
20260905175000 69 5 0.0 1.7 0.00 0.00 0.00 40 1018.0
20260905174000 69 62 0.9 1.7 0.00 0.00 0.00 39 1018.0
20260905173001 69 91 0.0 1.7 0.00 0.00 0.00 38 1018.0
20260905172001 69 149 0.0 2.6 0.00 0.00 0.00 38 1018.0
20260905171000 71 186 0.0 2.6 0.00 0.00 0.00 38 1018.0
20260905170001 71 247 0.0 2.6 0.00 0.00 0.00 37 1018.0
20260905165000 71 32 1.7 1.7 0.00 0.00 0.00 38 1018.0
20260905164000 71 171 0.0 0.0 0.00 0.00 0.00 37 1018.0
20260905163000 73 126 0.0 0.0 0.00 0.00 0.00 36 1018.0
20260905162000 73 289 0.9 2.6 0.00 0.00 0.00 36 1018.0
20260905161000 75 13 2.6 2.6 0.00 0.00 0.00 36 1018.0
20260905160000 75 1 0.0 0.0 0.00 0.00 0.00 36 1018.0
20260905155001 75 281 0.0 0.0 0.00 0.00 0.00 35 1018.0
20260905154000 76 281 0.0 0.9 0.00 0.00 0.00 34 1018.0
20260905153001 76 64 0.0 0.0 0.00 0.00 0.00 34 1018.0
20260905152001 76 279 0.0 1.7 0.00 0.00 0.00 32 1018.0
20260905151000 78 218 0.0 0.0 0.00 0.00 0.00 33 1018.0
20260905150000 78 242 0.0 2.6 0.00 0.00 0.00 33 1018.0
20260905145000 78 205 0.9 4.3 0.00 0.00 0.00 33 1018.0
20260905144000 78 257 3.5 4.3 0.00 0.00 0.00 33 1018.0
20260905143000 80 206 1.7 3.5 0.00 0.00 0.00 33 1018.0
20260905142001 80 247 0.9 4.3 0.00 0.00 0.00 31 1018.0
20260905141000 80 257 3.5 5.2 0.00 0.00 0.00 32 1018.0
20260905140001 80 0 0.0 0.0 0.00 0.00 0.00 33 1018.5
20260905135000 80 0 0.0 0.0 0.00 0.00 0.00 32 1018.5
20260905134001 81 0 0.0 0.0 0.00 0.00 0.00 32 1018.5
20260905133000 81 0 0.0 0.0 0.00 0.00 0.00 32 1018.5
20260905132000 81 0 0.0 0.0 0.00 0.00 0.00 29 1018.5
20260905131000 81 0 0.0 0.0 0.00 0.00 0.00 30 1019.0
20260905130001 81 0 0.0 0.0 0.00 0.00 0.00 31 1019.0
20260905125000 81 0 0.0 0.0 0.00 0.00 0.00 32 1019.0
20260905124000 82 0 0.0 0.0 0.00 0.00 0.00 31 1019.0
20260905123001 82 0 0.0 0.0 0.00 0.00 0.00 31 1019.0
20260905122000 82 0 0.0 0.0 0.00 0.00 0.00 31 1020.0
20260905121001 82 0 0.0 0.0 0.00 0.00 0.00 31 1020.0
20260905120001 82 0 0.0 0.0 0.00 0.00 0.00 33 1020.0
20260905115000 82 0 0.0 0.0 0.00 0.00 0.00 32 1020.0
20260905114000 81 0 0.0 0.0 0.00 0.00 0.00 33 1020.0
20260905113000 81 0 0.0 0.0 0.00 0.00 0.00 33 1020.0